STARLINK-36033

operational
NORAD ID: 71091 Constellation: starlink
LEOCIRCULAR

STARLINK-36033について

説明を読み込み中...

リアルタイム位置

3D地球を読み込み中...

次回通過

高度履歴

Altitude vs Time

uPlot chart will show altitude changes over time

軌道要素

1 71091C 25283R 25341.77618056 -.00871760 00000+0 -12788-2 0 3412
2 71091 53.1575 99.5432 0001138 62.9833 343.5445 16.05222791 16
Epoch: Dec 7, 2025 • Age: 36 hours

現在のステータス

高度 273.4 km
速度 7.74 km/s
衛星直下点 -30.98°S, 168.54°E
打ち上げ日 Dec 7, 2025
運用期間 N/A
タイプ internet

大規模コンステレーション

Loading constellations...